Stündliche Wetter Abriaquí

Heute, 23 Juni, Mittwoch

Zeit Temperatur Niederschläge Wind Luftdruck Luftfeuchtigkeit
00:00 +13°C° 0.1 mm 0 m/S 602 mmHg 96%
01:00 +12°C° 0.1 mm 0 m/S 602 mmHg 96%
02:00 +12°C° 0 mm 0 m/S 602 mmHg 96%
03:00 +12°C° 0 mm 0 m/S 602 mmHg 96%
04:00 +12°C° 0 mm 0 m/S 601 mmHg 95%
05:00 +13°C° 0 mm 0 m/S 602 mmHg 94%
06:00 +13°C° 0 mm 0 m/S 602 mmHg 93%
07:00 +14°C° 0 mm 0 m/S 603 mmHg 92%
08:00 +16°C° 0.1 mm 0 m/S 603 mmHg 83%
09:00 +20°C° 0.1 mm 1 m/S 604 mmHg 74%
10:00 +22°C° 0.1 mm 1 m/S 605 mmHg 65%
11:00 +22°C° 0.8 mm 1 m/S 605 mmHg 66%
12:00 +22°C° 0.8 mm 1 m/S 604 mmHg 67%
13:00 +23°C° 0.8 mm 1 m/S 604 mmHg 68%
14:00 +22°C° 1.5 mm 1 m/S 603 mmHg 74%
15:00 +21°C° 1.5 mm 1 m/S 602 mmHg 79%
16:00 +20°C° 1.5 mm 1 m/S 602 mmHg 85%
17:00 +19°C° 1.4 mm 1 m/S 602 mmHg 88%
18:00 +16°C° 1.4 mm 1 m/S 602 mmHg 92%
19:00 +15°C° 1.4 mm 1 m/S 602 mmHg 96%
20:00 +15°C° 0.8 mm 1 m/S 602 mmHg 96%
21:00 +15°C° 0.8 mm 1 m/S 602 mmHg 97%
22:00 +14°C° 0.8 mm 0 m/S 602 mmHg 97%
23:00 +13°C° 0.4 mm 0 m/S 602 mmHg 97%

Morgen, 24 Juni, Donnerstag

Zeit Temperatur Niederschläge Wind Luftdruck Luftfeuchtigkeit
00:00 +13°C° 0.4 mm 0 m/S 602 mmHg 97%
01:00 +13°C° 0.4 mm 0 m/S 601 mmHg 97%
02:00 +13°C° 0.2 mm 0 m/S 601 mmHg 97%
03:00 +13°C° 0.2 mm 0 m/S 601 mmHg 97%
04:00 +13°C° 0.2 mm 0 m/S 601 mmHg 97%
05:00 +13°C° 0.2 mm 0 m/S 601 mmHg 97%
06:00 +13°C° 0.2 mm 0 m/S 601 mmHg 96%
07:00 +14°C° 0.2 mm 0 m/S 602 mmHg 96%
08:00 +15°C° 0.4 mm 0 m/S 602 mmHg 91%
09:00 +16°C° 0.4 mm 0 m/S 603 mmHg 85%
10:00 +20°C° 0.4 mm 1 m/S 604 mmHg 80%
11:00 +20°C° 1.2 mm 1 m/S 603 mmHg 80%
12:00 +21°C° 1.2 mm 1 m/S 603 mmHg 80%
13:00 +21°C° 1.2 mm 1 m/S 602 mmHg 79%
14:00 +21°C° 1.6 mm 1 m/S 602 mmHg 82%
15:00 +20°C° 1.6 mm 1 m/S 601 mmHg 85%
16:00 +20°C° 1.6 mm 1 m/S 601 mmHg 88%
17:00 +18°C° 1.1 mm 1 m/S 601 mmHg 91%
18:00 +16°C° 1.1 mm 1 m/S 601 mmHg 94%
19:00 +15°C° 1.1 mm 1 m/S 601 mmHg 97%
20:00 +15°C° 0.7 mm 1 m/S 601 mmHg 97%
21:00 +15°C° 0.7 mm 1 m/S 602 mmHg 97%
22:00 +14°C° 0.7 mm 0 m/S 602 mmHg 97%
23:00 +14°C° 0.8 mm 0 m/S 602 mmHg 98%

übermorgen, 25 Juni, Freitag

Zeit Temperatur Niederschläge Wind Luftdruck Luftfeuchtigkeit
00:00 +13°C° 0.8 mm 0 m/S 601 mmHg 98%
01:00 +13°C° 0.8 mm 0 m/S 601 mmHg 98%
02:00 +13°C° 0.5 mm 0 m/S 601 mmHg 98%
03:00 +13°C° 0.5 mm 0 m/S 601 mmHg 98%
04:00 +13°C° 0.5 mm 0 m/S 601 mmHg 98%
05:00 +13°C° 0.2 mm 0 m/S 601 mmHg 98%
06:00 +13°C° 0.2 mm 0 m/S 601 mmHg 97%
07:00 +14°C° 0.2 mm 0 m/S 602 mmHg 97%
08:00 +15°C° 0.5 mm 0 m/S 602 mmHg 93%
09:00 +16°C° 0.5 mm 0 m/S 603 mmHg 89%
10:00 +19°C° 0.5 mm 1 m/S 603 mmHg 86%
11:00 +19°C° 0.9 mm 1 m/S 603 mmHg 86%
12:00 +19°C° 0.9 mm 1 m/S 602 mmHg 86%
13:00 +17°C° 0.9 mm 0 m/S 602 mmHg 87%
14:00 +19°C° 0.7 mm 1 m/S 602 mmHg 87%
15:00 +19°C° 0.7 mm 1 m/S 601 mmHg 88%
16:00 +19°C° 0.7 mm 1 m/S 601 mmHg 88%
17:00 +18°C° 0.8 mm 1 m/S 601 mmHg 91%
18:00 +16°C° 0.8 mm 1 m/S 601 mmHg 95%
19:00 +15°C° 0.8 mm 1 m/S 601 mmHg 98%
20:00 +14°C° 1.2 mm 0 m/S 601 mmHg 98%
21:00 +14°C° 1.2 mm 0 m/S 602 mmHg 98%
22:00 +14°C° 1.2 mm 0 m/S 602 mmHg 98%
23:00 +13°C° 1 mm 0 m/S 602 mmHg 98%

26 Juni, Samstag

Zeit Temperatur Niederschläge Wind Luftdruck Luftfeuchtigkeit
00:00 +13°C° 1 mm 0 m/S 601 mmHg 98%
01:00 +13°C° 1 mm 0 m/S 601 mmHg 98%
02:00 +13°C° 0.2 mm 0 m/S 601 mmHg 98%
03:00 +13°C° 0.2 mm 0 m/S 601 mmHg 98%
04:00 +13°C° 0.2 mm 0 m/S 600 mmHg 98%
05:00 +13°C° 0.4 mm 0 m/S 601 mmHg 97%
06:00 +13°C° 0.4 mm 0 m/S 601 mmHg 97%
07:00 +13°C° 0.4 mm 0 m/S 601 mmHg 97%
08:00 +15°C° 0.2 mm 0 m/S 602 mmHg 90%
09:00 +16°C° 0.2 mm 0 m/S 602 mmHg 83%
10:00 +20°C° 0.2 mm 1 m/S 603 mmHg 76%
11:00 +21°C° 0.5 mm 1 m/S 603 mmHg 75%
12:00 +21°C° 0.5 mm 1 m/S 603 mmHg 73%
13:00 +22°C° 0.5 mm 1 m/S 602 mmHg 71%
14:00 +21°C° 0.9 mm 1 m/S 602 mmHg 76%
15:00 +20°C° 0.9 mm 1 m/S 601 mmHg 80%
16:00 +20°C° 0.9 mm 1 m/S 601 mmHg 85%
17:00 +18°C° 0.7 mm 1 m/S 601 mmHg 89%
18:00 +16°C° 0.7 mm 1 m/S 601 mmHg 93%
19:00 +15°C° 0.7 mm 1 m/S 601 mmHg 97%
20:00 +15°C° 0.6 mm 1 m/S 601 mmHg 97%
21:00 +15°C° 0.6 mm 1 m/S 601 mmHg 97%
22:00 +13°C° 0.6 mm 0 m/S 602 mmHg 97%
23:00 +13°C° 0.3 mm 0 m/S 601 mmHg 97%

27 Juni, Sonntag

Zeit Temperatur Niederschläge Wind Luftdruck Luftfeuchtigkeit
00:00 +13°C° 0.3 mm 0 m/S 601 mmHg 97%
01:00 +13°C° 0.3 mm 0 m/S 601 mmHg 97%
02:00 +13°C° 0.1 mm 0 m/S 601 mmHg 97%
03:00 +13°C° 0.1 mm 0 m/S 601 mmHg 97%
04:00 +13°C° 0.1 mm 0 m/S 600 mmHg 97%
05:00 +13°C° 0.1 mm 0 m/S 601 mmHg 97%
06:00 +13°C° 0.1 mm 0 m/S 601 mmHg 96%
07:00 +13°C° 0.1 mm 0 m/S 602 mmHg 96%
08:00 +15°C° 0.2 mm 0 m/S 602 mmHg 90%
09:00 +18°C° 0.2 mm 1 m/S 603 mmHg 84%
10:00 +19°C° 0.2 mm 1 m/S 603 mmHg 78%
11:00 +20°C° 0.7 mm 1 m/S 603 mmHg 76%
12:00 +21°C° 0.7 mm 1 m/S 603 mmHg 73%
13:00 +22°C° 0.7 mm 1 m/S 602 mmHg 71%
14:00 +21°C° 1 mm 1 m/S 602 mmHg 75%
15:00 +21°C° 1 mm 1 m/S 601 mmHg 78%
16:00 +20°C° 1 mm 1 m/S 601 mmHg 82%
17:00 +19°C° 1.1 mm 1 m/S 601 mmHg 87%
18:00 +18°C° 1.1 mm 1 m/S 601 mmHg 92%
19:00 +15°C° 1.1 mm 1 m/S 601 mmHg 97%
20:00 +15°C° 0.9 mm 1 m/S 601 mmHg 97%
21:00 +14°C° 0.9 mm 0 m/S 601 mmHg 97%
22:00 +14°C° 0.9 mm 0 m/S 602 mmHg 97%
23:00 +13°C° 0.6 mm 0 m/S 601 mmHg 97%

28 Juni, Montag

Zeit Temperatur Niederschläge Wind Luftdruck Luftfeuchtigkeit
00:00 +13°C° 0.6 mm 0 m/S 601 mmHg 97%
01:00 +13°C° 0.6 mm 0 m/S 601 mmHg 97%
02:00 +13°C° 0.2 mm 0 m/S 601 mmHg 97%
03:00 +12°C° 0.2 mm 0 m/S 601 mmHg 96%
04:00 +12°C° 0.2 mm 0 m/S 601 mmHg 96%
05:00 +13°C° 0 mm 0 m/S 601 mmHg 96%
06:00 +13°C° 0 mm 0 m/S 602 mmHg 95%
07:00 +13°C° 0 mm 0 m/S 602 mmHg 94%
08:00 +15°C° 0.1 mm 0 m/S 603 mmHg 86%
09:00 +19°C° 0.1 mm 1 m/S 603 mmHg 78%
10:00 +21°C° 0.1 mm 1 m/S 604 mmHg 69%
11:00 +22°C° 0.7 mm 1 m/S 604 mmHg 69%
12:00 +22°C° 0.7 mm 1 m/S 603 mmHg 69%
13:00 +22°C° 0.7 mm 1 m/S 603 mmHg 69%
14:00 +22°C° 1.1 mm 1 m/S 603 mmHg 73%
15:00 +21°C° 1.1 mm 1 m/S 602 mmHg 78%
16:00 +20°C° 1.1 mm 1 m/S 602 mmHg 83%
17:00 +19°C° 1 mm 1 m/S 602 mmHg 87%
18:00 +16°C° 1 mm 1 m/S 602 mmHg 92%
19:00 +15°C° 1 mm 1 m/S 602 mmHg 97%
20:00 +14°C° 0.5 mm 0 m/S 602 mmHg 96%
21:00 +14°C° 0.5 mm 0 m/S 602 mmHg 96%
22:00 +13°C° 0.5 mm 0 m/S 602 mmHg 96%
23:00 +13°C° 0.3 mm 0 m/S 602 mmHg 96%
Mehr zeigen

Wir brauchen deine Erlaubnis

Meteoprog und unser Service Anbieter werden persönliche Daten aufbewahren, so wie Cookies, Geräte Bezeichnung oder ähnliche Technologien von deinem Gerät und Prozess, so wie Persönliche Daten Inhalte und Werbungen, genauso wie social Media und den Verkehr zu analysieren.

  • Aufbewahrung und/oder Zugang zu deiner Geräte Informationen.

    Cookies, Geräte Bezeichnung oder andere Informationen, können aufbewahrt oder Zugang zu deinem Gerät erhalten, für den Grund, der oben angegeben wird.

  • Personalisierte Werbung und Inhalte, Messungen, Einblick in das Publikum und Produkt Entwicklung.

    Werbungen und Inhalte können personalisiert werden, basierend auf ein Profil. Mehr Daten können besser personalisierte Werbungen und Inhalte hinzufügen. Werbung und Inhalte können gezeigt und gemessen werden. Einblicke über das Publikum, welche die Werbung gesehen haben und den Inhalt, können abgeleitet werden. So wie Daten können genutzt werden, um es zu verbessern oder die Benutzer Erfahrung zu verbessern das System und die Software.

Wenn du “Ich stimme zu” klickst, erlaubst du uns, die Cookies zu benutzen die Geräte Bezeichnung, den Web oder ähnliche Technologien zu benutzen. Deine Settings, können in deinem Gerät bei deinem Browser geändert werden.

Für den bestimmten Zweck, berechtigten Interessen beruhen darauf, mehr als auf den Inhalt. Du kannst mehr darüber in unseren Privaten und Cookie Politik lesen.